Find Starlink 30369

NORAD ID: 57781 Int'l Des: 2023-134 Owner: SPXS Country: US Constellation: starlink operational
LEOCIRCULAR

Live Position

Loading 3D Globe...

About Starlink 30369

Description loading...

Upcoming Passes

Passes for default location (London). Set your location on the main map for personalized predictions.

Altitude History

Loading altitude history...

Two-Line Element Set

1 57781U 23134L 26106.91079497 .00005657 00000-0 21510-3 0 9997
2 57781 43.0050 338.5003 0001410 269.9301 90.1389 15.27553918145354
Epoch: Apr 16, 2026 • Age: 13 hours

Current Status

Altitude 482.4 km
Velocity 7.63 km/s
Sub-Earth Point 5.78°N, 20.59°W
Launch Date Sep 4, 2023
Age 2.6 years
Type internet

Technical Details

Classification Payload
Mass 730.00 kg
Dry Mass 700.00 kg
Total Mass 730.00 kg
Length 0.30 m
Diameter 4.10 m
Span 29.00 m
Shape Box + pan
Manufacturer SPXS
Bus Type Starlink V2M
Phase Status In Orbit
Owner/State SPXS/US

Most Searched